Weather History for Bentonville, AR

Change the Weather History Date:

Friday, January 13, 2012

  Actual Average Record
Temperature  
Mean Temperature 27 °F -  
Max Temperature 37 °F 42 °F 70 °F (1952)
Min Temperature 17 °F 19 °F -3 °F (1963)
Degree Days  
Heating Degree Days 38    
Moisture  
Dew Point 5 °F    
Average Humidity 41    
Maximum Humidity 58    
Minimum Humidity 26    
Precipitation  
Precipitation 0.00 in - - ()
Sea Level Pressure  
Sea Level Pressure 30.11 in    
Wind  
Wind Speed 7 mph (West)    
Max Wind Speed 12 mph    
Max Gust Speed -    
Visibility 10 miles    
Events      
Averages and records for this station are not official NWS values.
T = Trace of Precipitation, MM = Missing Value Source: NWS Daily Summary

Daily Weather History Graph

Daily Weather History Graph

Search for Another Location

Airport:

Trip Planner

Search our weather history database for the weather conditions in past years. The results will help you decide how hot, cold, wet, or windy it might be!

Date:

Astronomy

Jan. 13, 2012 Rise Set
Actual Time 7:28 AM CST 5:22 PM CST
Civil Twilight 7:00 AM CST 5:51 PM CST
Nautical Twilight 6:28 AM CST 6:22 PM CST
Astronomical Twilight 5:57 AM CST 6:53 PM CST
Moon 10:26 PM CST (1/13) 9:52 AM CST (1/13)
Length of Visible Light 10h 51m
Length of Day
9h 54m
Waning Gibbous, 78% of the Moon is Illuminated
Jan 13
Waning Gibbous
Jan 16
Last Quarter
Jan 23
New
Jan 30
First Quarter
Feb 7
Full

Hourly Weather History & Observations

Time (CST) Temp. Windchill Dew Point Humidity Pressure Visibility Wind Dir Wind Speed Gust Speed Precip Events Conditions
12:15 AM 21.2 °F 10.9 °F 8.6 °F 58% 30.05 in 10.0 mi WNW 9.2 mph - N/A   Clear
12:35 AM 21.2 °F 12.6 °F 6.8 °F 54% 30.05 in 10.0 mi WNW 6.9 mph - N/A   Clear
12:55 AM 21.2 °F 13.6 °F 6.8 °F 54% 30.04 in 10.0 mi WNW 5.8 mph - N/A   Clear
1:15 AM 19.4 °F 12.8 °F 6.8 °F 58% 30.04 in 10.0 mi WNW 4.6 mph - N/A   Clear
1:35 AM 21.2 °F 14.9 °F 5.0 °F 50% 30.05 in 10.0 mi West 4.6 mph - N/A   Clear
1:55 AM 21.2 °F 12.6 °F 5.0 °F 50% 30.05 in 10.0 mi WNW 6.9 mph - N/A   Clear
2:15 AM 21.2 °F 13.6 °F 3.2 °F 46% 30.05 in 10.0 mi NW 5.8 mph - N/A   Clear
2:35 AM 21.2 °F 12.6 °F 3.2 °F 46% 30.06 in 10.0 mi WNW 6.9 mph - N/A   Clear
2:55 AM 21.2 °F 13.6 °F 1.4 °F 42% 30.07 in 10.0 mi WNW 5.8 mph - N/A   Clear
3:15 AM 19.4 °F 11.5 °F 3.2 °F 49% 30.07 in 10.0 mi WNW 5.8 mph - N/A   Clear
3:35 AM 19.4 °F 14.3 °F 3.2 °F 49% 30.07 in 10.0 mi WNW 3.5 mph - N/A   Clear
3:55 AM 19.4 °F 11.5 °F 3.2 °F 49% 30.07 in 10.0 mi West 5.8 mph - N/A   Clear
4:15 AM 19.4 °F 12.8 °F 3.2 °F 49% 30.06 in 10.0 mi WNW 4.6 mph - N/A   Clear
4:35 AM 19.4 °F 14.3 °F 3.2 °F 49% 30.06 in 10.0 mi WSW 3.5 mph - N/A   Clear
4:55 AM 19.4 °F 12.8 °F 5.0 °F 54% 30.06 in 10.0 mi West 4.6 mph - N/A   Clear
5:15 AM 19.4 °F 11.5 °F 3.2 °F 49% 30.07 in 10.0 mi West 5.8 mph - N/A   Clear
5:35 AM 17.6 °F 8.2 °F 3.2 °F 53% 30.08 in 10.0 mi West 6.9 mph - N/A   Clear
5:55 AM 19.4 °F 9.5 °F 3.2 °F 49% 30.09 in 10.0 mi WNW 8.1 mph - N/A   Clear
6:15 AM 19.4 °F 10.4 °F 3.2 °F 49% 30.11 in 10.0 mi West 6.9 mph - N/A   Clear
6:35 AM 17.6 °F 9.3 °F 3.2 °F 53% 30.11 in 10.0 mi WNW 5.8 mph - N/A   Clear
6:55 AM 17.6 °F 10.7 °F 3.2 °F 53% 30.11 in 10.0 mi West 4.6 mph - N/A   Clear
7:35 AM 17.6 °F 10.7 °F 3.2 °F 53% 30.12 in 10.0 mi West 4.6 mph - N/A   Clear
8:15 AM 21.2 °F 11.7 °F 5.0 °F 50% 30.14 in 10.0 mi WNW 8.1 mph - N/A   Clear
8:35 AM 21.2 °F 12.6 °F 3.2 °F 46% 30.14 in 10.0 mi West 6.9 mph - N/A   Clear
8:55 AM 21.2 °F 11.7 °F 3.2 °F 46% 30.16 in 10.0 mi West 8.1 mph - N/A   Clear
9:15 AM 21.2 °F 10.9 °F 3.2 °F 46% 30.16 in 10.0 mi WNW 9.2 mph - N/A   Clear
9:35 AM 23.0 °F 13.1 °F 1.4 °F 39% 30.16 in 10.0 mi West 9.2 mph - N/A   Clear
9:55 AM 24.8 °F 16.9 °F 3.2 °F 40% 30.17 in 10.0 mi West 6.9 mph - N/A   Clear
10:15 AM 26.6 °F 19.1 °F 1.4 °F 34% 30.17 in 10.0 mi West 6.9 mph - N/A   Clear
10:35 AM 26.6 °F 18.2 °F 3.2 °F 37% 30.17 in 10.0 mi West 8.1 mph - N/A   Clear
10:55 AM 28.4 °F 19.1 °F 1.4 °F 31% 30.17 in 10.0 mi WNW 10.4 mph - N/A   Clear
11:15 AM 28.4 °F 19.7 °F 1.4 °F 31% 30.16 in 10.0 mi West 9.2 mph - N/A   Scattered Clouds
11:35 AM 28.4 °F 18.5 °F 1.4 °F 31% 30.16 in 10.0 mi WNW 11.5 mph - N/A   Partly Cloudy
11:55 AM 30.2 °F 21.3 °F 3.2 °F 32% 30.16 in 10.0 mi West 10.4 mph - N/A   Clear
12:15 PM 30.2 °F 21.9 °F 3.2 °F 32% 30.14 in 10.0 mi West 9.2 mph - N/A   Clear
12:35 PM 30.2 °F 25.4 °F 3.2 °F 32% 30.14 in 10.0 mi WNW 4.6 mph - N/A   Clear
1:15 PM 33.8 °F 27.7 °F 5.0 °F 30% 30.13 in 10.0 mi West 6.9 mph - N/A   Overcast
1:35 PM 33.8 °F 27.0 °F 5.0 °F 30% 30.12 in 10.0 mi West 8.1 mph - N/A   Overcast
1:55 PM 35.6 °F 30.7 °F 3.2 °F 26% 30.11 in 10.0 mi West 5.8 mph - N/A   Scattered Clouds
2:15 PM 35.6 °F 30.7 °F 6.8 °F 30% 30.11 in 10.0 mi WNW 5.8 mph - N/A   Clear
2:35 PM 37.4 °F 30.8 °F 8.6 °F 30% 30.11 in 10.0 mi West 9.2 mph - N/A   Clear
2:55 PM 37.4 °F 30.3 °F 6.8 °F 28% 30.11 in 10.0 mi WSW 10.4 mph - N/A   Clear
3:15 PM 37.4 °F 30.3 °F 8.6 °F 30% 30.11 in 10.0 mi WSW 10.4 mph - N/A   Clear
3:35 PM 37.4 °F 30.3 °F 8.6 °F 30% 30.11 in 10.0 mi West 10.4 mph - N/A   Clear
3:55 PM 37.4 °F 31.4 °F 8.6 °F 30% 30.12 in 10.0 mi West 8.1 mph - N/A   Clear
4:15 PM 37.4 °F 30.3 °F 8.6 °F 30% 30.12 in 10.0 mi West 10.4 mph - N/A   Clear
4:35 PM 37.4 °F 31.4 °F 8.6 °F 30% 30.12 in 10.0 mi West 8.1 mph - N/A   Clear
4:55 PM 37.4 °F 33.8 °F 10.4 °F 33% 30.12 in 9.0 mi West 4.6 mph - N/A   Clear
5:15 PM 35.6 °F 31.7 °F 10.4 °F 35% 30.12 in 10.0 mi West 4.6 mph - N/A   Clear
5:35 PM 35.6 °F 30.7 °F 10.4 °F 35% 30.13 in 10.0 mi WSW 5.8 mph - N/A   Clear
5:55 PM 33.8 °F 29.6 °F 10.4 °F 38% 30.13 in 10.0 mi WSW 4.6 mph - N/A   Clear
6:15 PM 33.8 °F 28.6 °F 10.4 °F 38% 30.13 in 10.0 mi WSW 5.8 mph - N/A   Clear
6:35 PM 33.8 °F 29.6 °F 10.4 °F 38% 30.13 in 10.0 mi South 4.6 mph - N/A   Clear
6:55 PM 30.2 °F 26.7 °F 10.4 °F 44% 30.12 in 10.0 mi WSW 3.5 mph - N/A   Clear
7:15 PM 30.2 °F 25.4 °F 10.4 °F 44% 30.12 in 10.0 mi SSW 4.6 mph - N/A   Clear
8:15 PM 30.2 °F 25.4 °F 10.4 °F 44% 30.12 in 10.0 mi South 4.6 mph - N/A   Clear
8:35 PM 30.2 °F 25.4 °F 10.4 °F 44% 30.11 in 10.0 mi South 4.6 mph - N/A   Clear
8:55 PM 30.2 °F 25.4 °F 10.4 °F 44% 30.11 in 10.0 mi South 4.6 mph - N/A   Clear
9:15 PM 28.4 °F 23.3 °F 10.4 °F 47% 30.10 in 10.0 mi South 4.6 mph - N/A   Clear
9:35 PM 30.2 °F 25.4 °F 10.4 °F 44% 30.09 in 10.0 mi South 4.6 mph - N/A   Clear
9:55 PM 30.2 °F 24.3 °F 10.4 °F 44% 30.09 in 10.0 mi South 5.8 mph - N/A   Clear
10:35 PM 30.2 °F 24.3 °F 10.4 °F 44% 30.09 in 10.0 mi South 5.8 mph - N/A   Clear
10:55 PM 30.2 °F 24.3 °F 10.4 °F 44% 30.10 in 10.0 mi South 5.8 mph - N/A   Clear
11:35 PM 30.2 °F 25.4 °F 12.2 °F 47% 30.08 in 10.0 mi South 4.6 mph - N/A   Clear
11:55 PM 28.4 °F 23.3 °F 12.2 °F 51% 30.07 in 10.0 mi South 4.6 mph - N/A   Clear